Weather History for Hartford, CT

Change the Weather History Date:

Saturday, November 17, 2012

  Actual Average Record
Temperature  
Mean Temperature 38 °F -  
Max Temperature 48 °F 50 °F 72 °F (1928)
Min Temperature 28 °F 29 °F 6 °F (1924)
Degree Days  
Heating Degree Days 27    
Moisture  
Dew Point 26 °F    
Average Humidity 65    
Maximum Humidity 85    
Minimum Humidity 39    
Precipitation  
Precipitation 0.00 in - - ()
Sea Level Pressure  
Sea Level Pressure 30.59 in    
Wind  
Wind Speed 3 mph (North)    
Max Wind Speed 10 mph    
Max Gust Speed -    
Visibility 10 miles    
Events      
Averages and records for this station are not official NWS values.
T = Trace of Precipitation, MM = Missing Value Source: NWS Daily Summary

Daily Weather History Graph

Daily Weather History Graph

Search for Another Location

Airport:

Trip Planner

Search our weather history database for the weather conditions in past years. The results will help you decide how hot, cold, wet, or windy it might be!

Date:

Astronomy

Nov. 17, 2012 Rise Set
Actual Time 6:42 AM EST 4:28 PM EST
Civil Twilight 6:12 AM EST 4:58 PM EST
Nautical Twilight 5:38 AM EST 5:31 PM EST
Astronomical Twilight 5:05 AM EST 6:04 PM EST
Moon 10:25 AM EST (11/17) 8:34 PM EST (11/17)
Length of Visible Light 10h 45m
Length of Day
9h 45m
Waxing Crescent, 20% of the Moon is Illuminated
Nov 17
Waxing Crescent
Nov 20
First Quarter
Nov 28
Full
Dec 6
Last Quarter
Dec 13
New

Hourly Weather History & Observations

Time (EST) Temp. Windchill Dew Point Humidity Pressure Visibility Wind Dir Wind Speed Gust Speed Precip Events Conditions
12:53 AM 30.9 °F 27.5 °F 25.0 °F 79% 30.45 in 10.0 mi NNE 3.5 mph - N/A   Clear
1:53 AM 30.9 °F - 24.1 °F 76% 30.47 in 10.0 mi Calm Calm - N/A   Clear
2:53 AM 30.9 °F - 23.0 °F 72% 30.49 in 10.0 mi Calm Calm - N/A   Clear
3:53 AM 30.0 °F - 23.0 °F 75% 30.50 in 10.0 mi Calm Calm - N/A   Clear
4:53 AM 28.9 °F - 23.0 °F 78% 30.53 in 10.0 mi Calm Calm - N/A   Clear
5:53 AM 28.9 °F - 25.0 °F 85% 30.56 in 10.0 mi Calm Calm - N/A   Clear
6:53 AM 28.0 °F - 24.1 °F 85% 30.58 in 10.0 mi Calm Calm - N/A   Clear
7:53 AM 34.0 °F - 26.1 °F 73% 30.61 in 10.0 mi Calm Calm - N/A   Clear
8:53 AM 37.9 °F 33.5 °F 27.0 °F 65% 30.62 in 10.0 mi NNE 5.8 mph - N/A   Clear
9:53 AM 42.1 °F 36.6 °F 28.9 °F 60% 30.63 in 10.0 mi North 9.2 mph - N/A   Clear
10:53 AM 45.0 °F 40.6 °F 28.9 °F 53% 30.62 in 10.0 mi NNE 8.1 mph - N/A   Clear
11:53 AM 46.9 °F - 28.9 °F 50% 30.60 in 10.0 mi NNE 8.1 mph - N/A   Clear
12:53 PM 48.9 °F - 28.0 °F 44% 30.59 in 10.0 mi NNW 8.1 mph - N/A   Clear
1:53 PM 48.9 °F - 27.0 °F 43% 30.58 in 10.0 mi NNE 10.4 mph - N/A   Clear
2:53 PM 48.9 °F - 25.0 °F 39% 30.58 in 10.0 mi North 4.6 mph - N/A   Clear
3:53 PM 48.9 °F - 25.0 °F 39% 30.59 in 10.0 mi North 3.5 mph - N/A   Clear
4:53 PM 45.0 °F - 26.1 °F 48% 30.60 in 10.0 mi Calm Calm - N/A   Clear
5:53 PM 39.9 °F - 28.0 °F 63% 30.62 in 10.0 mi Calm Calm - N/A   Clear
6:53 PM 37.0 °F - 27.0 °F 67% 30.62 in 10.0 mi Calm Calm - N/A   Clear
7:53 PM 36.0 °F - 28.0 °F 73% 30.62 in 10.0 mi Calm Calm - N/A   Clear
8:53 PM 33.1 °F - 26.1 °F 75% 30.64 in 7.0 mi Calm Calm - N/A   Clear
9:53 PM 33.1 °F 30.0 °F 27.0 °F 78% 30.65 in 8.0 mi NW 3.5 mph - N/A   Clear
10:53 PM 35.1 °F 31.0 °F 27.0 °F 72% 30.65 in 10.0 mi North 4.6 mph - N/A   Clear
11:53 PM 32.0 °F 26.4 °F 25.0 °F 75% 30.66 in 9.0 mi NNE 5.8 mph - N/A   Clear